Other Public Products
Issued by NWS Charleston, SC

Home | Current Version | Previous Version | Text Only | Print | Product List | Glossary On
Versions: 1 2 3 4 5 6 7 8 9 10 11 12 13 14 15 16 17 18 19 20 21 22 23 24 25 26 27 28 29 30 31 32 33 34 35 36 37 38 39 40 41 42 43 44 45 46 47 48 49 50
434
FPUS82 KCHS 272127
OPUCHS

TEST...KCHS/KSAV Gateway Observations...TEST
National Weather Service Charleston SC
500 PM EDT TUE JUN 27 2017

NOTE: "fair" indicates few or no clouds below 12,000 feet with no
significant weather and/or obstructions to visibility.

SCZ050-WAZ558-NCZ071-TXZ119-213-PAZ071-DCZ001-FLZ074-172-MI076-
NYZ176-178-MAZ016-IL014-TNZ027-NJZ106-GAZ044-MD014-272200-

...Gateway Observations for Charleston International...

CITY           SKY/WX    TMP DP  RH WIND       PRES   REMARKS
Chas Airport   PTSUNNY   84  61  45 SE9       30.01R
Seattle        MOSUNNY   65  50  58 SW8       30.05F
Charlotte      PTSUNNY   81  53  37 N8        30.07F
Dallas DFW     PTSUNNY   91  71  51 E12       29.93F THUNDER HX  97
Dallas Love    TSTM      73  64  73 S30G51    29.99  VSB 1
Philladelphia  MOSUNNY   79  48  33 W12G21    29.95S
Wash National  PTSUNNY   78  52  40 E6        29.99F
Baltimore      PTSUNNY   79  46  31 W16       29.97S
Miami          CLOUDY    82  73  74 S5        29.97F
Detroit        PTSUNNY   75  47  36 W10       30.04F
Newark         PTSUNNY   77  53  43 SW9G17    29.92F
Laguardia      PTSUNNY   75  59  57 S14G24    29.92S
J F K          MOSUNNY   73  62  68 S14       29.95F
Boston Logan   PTSUNNY   75  52  44 S22G33    29.90F
Ft. Lauderdale CLOUDY    86  76  71 S10       29.95F HX  96
Chicago O`Hare MOSUNNY   76  43  30 CALM      30.06F
Chicago Midway PTSUNNY   76  47  35 NW6       30.06F
Houston Bush   CLOUDY    81  74  79 SE14      29.96F
Houston Hobby  LGT RAIN  83  72  69 E6        29.96F
Nashville      PTSUNNY   83  53  35 NW8       30.09F
Atlanta        MOSUNNY   82  54  37 NW10      30.05F

$$

GAZ044-118-TXZ119-213-NCZ071-DCZ001-MDZ014-506-PAZ021-071-NJZ106-
NYZ176-178-MAZ106-OHZ011-021-055-MIZ076-KYZ091-ILZ014-INZ047-
MNZ060-ONZ431-272200-

...Gateway Observations for Savannah International...

CITY           SKY/WX    TMP DP  RH WIND       PRES   REMARKS
Savannah Arpt  CLOUDY    83  69  62 SE10      30.02R
Atlanta        MOSUNNY   82  54  37 NW10      30.05F
Charlotte      PTSUNNY   81  53  37 N8        30.07F
Dallas DFW     PTSUNNY   91  71  51 E12       29.93F THUNDER HX  97
Houston Bush   CLOUDY    81  74  79 SE14      29.96F
Wash National  PTSUNNY   78  52  40 E6        29.99F
Wash Dulles    PTSUNNY   80  44  27 W13G21    29.99F
Baltimore      PTSUNNY   79  46  31 W16       29.97S
Philadelphia   MOSUNNY   79  48  33 W12G21    29.95S
Newark         PTSUNNY   77  53  43 SW9G17    29.92F
Laguardia      PTSUNNY   75  59  57 S14G24    29.92S
J F K          MOSUNNY   73  62  68 S14       29.95F
Boston         PTSUNNY   75  52  44 S22G33    29.90F
Pittsburg      PTSUNNY   66  47  50 NW12G22   30.08R
Akron          MOSUNNY   69  41  36 W8        30.08F
Cleveland      MOSUNNY   71  44  37 W16       30.09F
Cincinnati     PTSUNNY   74  50  42 N5        30.12S
Columbus       MOSUNNY   72  47  40 W9G16     30.09S
Detroit        PTSUNNY   75  47  36 W10       30.04F
Chicago O`Hare MOSUNNY   76  43  30 CALM      30.06F
Minneapolis    CLOUDY    75  42  30 S13       29.93F
Indianapolis   MOSUNNY   73  46  38 VRB6      30.11F
Toronto Canada PTSUNNY   68  48  49 NW18      29.94S

$$




USA.gov is the U.S. government's official web portal to all federal, state and local government web resources and services.